Regional Weather Roundup
Issued by NWS

Home | Current Version | Previous Version | Text Only | Print | Product List | Glossary Off
Versions: 1 2 3 4 5 6 7 8 9 10 11 12 13 14 15 16 17 18 19 20 21 22 23 24 25 26 27 28 29 30 31 32 33 34 35 36 37 38 39 40 41 42 43 44 45 46 47 48 49 50

000
ASUS43 KOAX 272002
RWRNE

WEATHER ROUNDUP FOR NEBRASKA
NATIONAL WEATHER SERVICE OMAHA NE
300 PM CDT MON APR 27 2015

NOTES: SATELLITE DATA IS BEING USED TO AUGMENT CLOUD COVER ABOVE
       12000 FEET.
       "FAIR" INDICATES FEW OR NO CLOUDS BELOW 12,000 FEET WITH NO
       SIGNIFICANT WEATHER AND/OR OBSTRUCTIONS TO VISIBILITY.

  * THESE STATIONS DO NOT REPORT WEATHER SUCH AS RAIN...SNOW OR FOG.

NEZ001>004-019>022-054>056-272100-
NEBRASKA PANHANDLE

CITY           SKY/WX    TMP DP  RH WIND       PRES   REMARKS
SCOTTSBLUFF    PTSUNNY   57  42  57 N7        30.27F
ALLIANCE       MOSUNNY   57  35  43 N9        30.25S
CHADRON        PTSUNNY   56  45  66 N9        30.29S
KIMBALL        CLOUDY    50  36  57 N6        30.26F
SIDNEY         PTSUNNY   56  37  49 VRB7      30.26F
$$

NEZ057>060-069>072-079>082-272100-
SOUTHWEST NEBRASKA

CITY           SKY/WX    TMP DP  RH WIND       PRES   REMARKS
NORTH PLATTE   PTSUNNY   63  32  31 MISG      30.21F
IMPERIAL       PTSUNNY   59  31  34 NE14      30.22F
MCCOOK         PTSUNNY   64  33  31 NE16G24   30.19F
$$

NEZ005>010-023>029-035>040-094-272100-
NORTH CENTRAL NEBRASKA

CITY           SKY/WX    TMP DP  RH WIND       PRES   REMARKS
VALENTINE      MOSUNNY   67  30  25 CALM      30.22F
AINSWORTH      MOSUNNY   66  32  28 N3        30.21F
BROKEN BOW     MOSUNNY   66  32  28 NE6G21    30.18F
ORD            SUNNY     68  32  26 N10       30.17F
$$

NEZ041-046>049-061>064-073>077-083>087-272100-
SOUTH CENTRAL NEBRASKA

CITY           SKY/WX    TMP DP  RH WIND       PRES   REMARKS
GRAND ISLAND   MOSUNNY   65  31  28 NE12G18   30.18F
AURORA         MOSUNNY   64  31  28 NE10G18   30.17F
HASTINGS       PTSUNNY   63  34  33 E16G22    30.18F
KEARNEY *      PTSUNNY   64  34  32 NE9G22    30.18F
$$

NEZ011>018-030>034-042>045-272100-
NORTHEAST NEBRASKA

CITY           SKY/WX    TMP DP  RH WIND       PRES   REMARKS
NORFOLK        SUNNY     68  28  22 VRB7      30.17F
BLAIR          SUNNY     66  29  24 N13G18    30.15F
COLUMBUS *     SUNNY     66  30  26 NE10G18   30.19F
TEKAMAH        SUNNY     71  28  20 NE15G21   30.15F
$$

NEZ050>053-065>068-078-088>093-272100-
SOUTHEAST NEBRASKA

CITY           SKY/WX    TMP DP  RH WIND       PRES   REMARKS
LINCOLN        SUNNY     67  31  26 NE13G20   30.17F
OMAHA EPPLEY   MOSUNNY   68  29  23 E16       30.15F
FALLS CITY     MOSUNNY   66  35  31 NE12G24   30.12F
NEBRASKA CITY  SUNNY     65  22  19 NE14G23   30.14F
$$

NEZ044-045-051>053-067-272100-
OMAHA AREA

CITY           SKY/WX    TMP DP  RH WIND       PRES   REMARKS
OMAHA EPPLEY   MOSUNNY   68  29  23 E16       30.15F
BLAIR          SUNNY     66  29  24 N13G18    30.15F
OFFUTT AFB     SUNNY     68  34  28 NE9       30.14F
WAHOO          FAIR      66  27  22 NE9       30.16F
$$



USA.gov is the U.S. government's official web portal to all federal, state and local government web resources and services.